#timestamp,LO_Frequency,Hit,StdDev 
1553821215.4,286046998.1,N
1553821235.2,286046999.5,N
1553821255.1,286046998.4,N
1553821256.0,286046998.4,N
1553821275.8,286046996.5,N
1553821295.7,286046998.9,N
1553821315.5,286046998.7,N
1553821335.3,286046999.3,N
1553821355.2,286046998.9,N
1553821375.0,286046999.6,N
1553821395.2,286046999.4,N
1553821415.9,286046998.4,N
1553821435.7,286046999.1,N
1553821455.7,286046997.2,N
1553821475.5,286046996.7,N
1553821495.4,286046999.0,N
1553821515.2,286046997.3,N
1553821535.0,286046997.4,N
1553821535.9,286046997.4,N
1553821555.8,286046997.7,N
1553821575.6,286046998.0,N
1553821595.4,286046997.6,N
1553821615.3,286046996.1,N
1553821635.1,286046995.6,Y
1553821655.9,286046998.9,P
1553821675.7,286046998.7,P
1553821695.5,286046997.4,P
1553821715.4,286046997.4,Y
1553821735.2,286046999.2,P
1553821755.0,286046996.6,P
1553821756.0,286046996.6,P
1553821775.8,286046996.5,Y
1553821795.6,286047000.0,P
1553821815.5,286047002.2,N
1553821835.3,286047000.3,N
1553821855.1,286047002.4,N
1553821875.9,286047001.9,N
1553821895.7,286047002.7,N
1553821915.6,286047000.0,N
1553821935.4,286047000.7,N
1553821955.2,286047000.9,N
1553821975.1,286047001.2,N
1553821976.0,286047001.2,N
1553821995.8,286047000.4,N
1553822015.6,286047001.0,N
1553822035.5,286047000.3,N
1553822055.3,286046999.9,N
1553822075.1,286047000.4,N
1553822095.9,286046999.7,N
1553822115.7,286046999.8,N
1553822135.6,286047000.1,N
1553822155.4,286046999.8,N
1553822175.2,286047000.3,N
1553822195.1,286046999.8,N
1553822196.0,286046999.8,N
1553822215.8,286047000.3,N
1553822235.6,286046998.3,N
1553822255.5,286046998.2,N
1553822275.3,286047000.9,N
1553822295.2,286046998.8,N
1553822315.9,286046999.3,N
1553822335.7,286046998.9,N
1553822355.6,286046997.1,N
1553822375.4,286046999.4,N
1553822395.2,286046996.6,N
1553822415.1,286046997.8,N
1553822416.0,286046997.8,N
1553822435.8,286046999.3,N
1553822455.7,286046996.9,N
1553822475.5,286046998.3,N
1553822495.3,286046999.1,N
1553822515.2,286046998.5,N
1553822535.9,286047000.3,N
1553822555.7,286047001.1,N
1553822575.6,286046998.4,N
1553822595.4,286047000.7,N
1553822615.2,286046999.6,N
1553822635.1,286046995.3,Y
1553822636.0,286046995.3,P
1553822655.8,286046997.9,N
1553822675.7,286046997.4,N
1553822695.5,286046998.9,N
1553822715.3,286046997.3,N
1553822735.2,286046997.5,N
1553822755.0,286046997.1,N
1553822755.9,286046997.1,N
1553822775.7,286046997.0,N
1553822795.6,286046999.4,N
1553822815.4,286046997.6,N
1553822835.3,286046997.7,N
1553822855.1,286046999.2,N
1553822856.0,286046999.2,N
1553822875.8,286046999.2,N
1553822895.7,286046997.4,N
1553822915.5,286046995.1,Y
1553822935.3,286046999.0,P
1553822955.2,286046999.2,N
1553822975.0,286046996.5,P
1553822975.9,286046996.5,Y
1553822995.8,286047000.7,P
1553823015.6,286047000.6,N
1553823035.4,286047000.9,N
1553823055.3,286047001.1,N
1553823075.1,286047000.6,N
1553823095.9,286047001.1,N
1553823115.7,286046998.2,N
1553823135.5,286047000.8,N
1553823155.4,286047000.4,N
1553823175.2,286047001.1,N
1553823195.0,286046998.4,N
1553823195.9,286046998.4,N
1553823215.8,286047000.1,N
1553823235.6,286047002.8,N
1553823255.5,286047000.6,N
1553823275.3,286047000.1,N
1553823295.1,286046998.1,N
1553823315.9,286046999.2,N
1553823335.7,286047001.1,N
1553823355.5,286046996.6,N
1553823375.4,286046997.4,N
1553823395.2,286046998.9,N
1553823415.0,286046998.8,N
1553823416.0,286046998.8,N
1553823435.8,286046999.1,N
1553823455.6,286046999.2,N
1553823475.5,286046996.8,N
1553823495.3,286046997.8,N
1553823515.1,286046997.5,N
1553823535.9,286046997.1,N
1553823555.7,286046994.9,Y
1553823575.6,286046997.2,P
1553823595.4,286046999.1,N
1553823615.2,286047001.1,N
1553823635.1,286047000.5,N
1553823636.0,286047000.5,N
1553823655.8,286047002.4,N
1553823675.6,286047001.6,N
1553823695.5,286047001.4,N
1553823715.3,286047001.8,N
1553823735.2,286047002.8,N
1553823755.9,286046999.8,N
1553823775.7,286047002.3,N
1553823795.6,286047000.5,N
1553823815.4,286046999.8,N
1553823835.2,286046999.7,N
1553823855.1,286047002.2,N
1553823856.0,286047002.2,N
1553823875.8,286047002.5,N
1553823895.7,286047002.4,N
1553823915.5,286047000.1,N
1553823935.3,286046999.9,N
1553823955.2,286047002.8,N
1553823975.0,286047000.4,N
1553823975.9,286047000.4,N
1553823995.7,286046998.2,N
1553824015.6,286047000.6,N
1553824035.4,286047001.0,N
1553824055.5,286047002.6,N
1553824075.3,286047002.6,N
1553824095.1,286047000.5,N
1553824115.9,286046999.8,N
1553824135.7,286047000.3,N
1553824155.6,286047000.0,N
1553824175.4,286047000.8,N
1553824195.2,286047000.8,N
1553824215.1,286047000.7,N
1553824216.0,286047000.7,N
1553824235.8,286046998.3,N
1553824255.6,286046997.2,N
1553824275.5,286046998.7,N
1553824295.3,286047000.9,N
1553824315.2,286046998.5,N
1553824335.9,286047001.2,N
1553824355.7,286047001.0,N
1553824375.6,286047001.0,N
1553824395.4,286047000.9,N
1553824415.2,286047000.4,N
1553824435.1,286047001.2,N
1553824436.0,286047001.2,N
1553824455.8,286046999.0,N
1553824475.7,286046998.7,N
1553824495.5,286046998.6,N
1553824515.3,286047000.8,N
1553824535.2,286047000.2,N
1553824555.0,286047003.7,N
1553824555.9,286047003.7,N
1553824575.8,286047001.3,N
1553824595.6,286047000.4,N
1553824615.4,286046999.3,N
1553824635.3,286046998.3,N
1553824655.1,286046998.4,N
1553824675.8,286046998.8,N
1553824695.7,286047001.2,N
1553824715.5,286046998.4,N
1553824735.4,286046998.1,N
1553824755.2,286046999.8,N
1553824775.0,286047002.2,N
1553824775.9,286047002.2,N
1553824795.8,286047004.4,N
